MMS 1

Last updated on Mon Oct 20 2025 00:02:39 GMT+0000 (Coordinated Universal Time)

1 40482U 15011A 25292.33336806 -.00000728 00000+0 00000+0 0 9994 2 40482 68.0698 352.5283 8568331 162.2247 211.3175 0.28356933 1384
UTC large
Height (km)
Speed (km/s)
/
Latitude / Longitude
Inclination (degrees)
Orbital Period (minutes)
Azimuth
Elevation
Range (km)
Doppler Factor

Next 0 passes for location: London (51.5072 / 0.1276)

Sorry there are no passes over London.